Regional Weather Roundup
Issued by NWS

Home | Current Version | Previous Version | Text Only | Print | Product List | Glossary Off
Versions: 1 2 3 4 5 6 7 8 9 10 11 12 13 14 15 16 17 18 19 20 21 22 23 24 25 26 27 28 29 30 31 32 33 34 35 36 37 38 39 40 41 42 43 44 45 46 47 48 49 50

000
ASUS43 KMPX 221901
RWRMN
WEATHER ROUNDUP FOR MINNESOTA
NATIONAL WEATHER SERVICE TWIN CITIES/CHANHASSEN MN
200 PM CDT THU JUN 22 2017


NOTE: "FAIR" INDICATES FEW OR NO CLOUDS BELOW 12,000 FEET WITH NO
SIGNIFICANT WEATHER AND/OR OBSTRUCTIONS TO VISIBILITY. N/A MEANS
CURRENT SKY AND/OR WEATHER CONDITIONS ARE NOT AVAILABLE.

MNZ060>063-068>070-222000-
   Twin Cities Metro

CITY           SKY/WX    TMP DP  RH WIND       PRES   REMARKS
TWIN CITIES    LGT RAIN  70  65  84 N5        29.73R
ST PAUL        LGT RAIN  68  66  93 W5        29.73R
CRYSTAL        LGT RAIN  67  62  84 W6        29.73R
BLAINE         CLOUDY    68  66  94 CALM      29.73S
LAKEVILLE      CLOUDY    72  64  78 NE5       29.72R
EDEN PRAIRIE   LGT RAIN  70  66  87 N7        29.72R
SOUTH ST PAUL  CLOUDY    69  67  92 CALM      29.71R
LAKE ELMO      LGT RAIN  68  64  88 CALM      29.73R
$$
MNZ001>005-007-008-013>017-022>024-027-028-222000-
   Northwest Minnesota

CITY           SKY/WX    TMP DP  RH WIND       PRES   REMARKS
BEMIDJI        SUNNY     74  46  36 W22G29    29.69S
HALLOCK        MOSUNNY   75  45  33 W18G26    29.62F
ROSEAU           N/A     72  48  43 W13G21    29.62F
WARROAD        SUNNY     72  48  43 SW9G22    29.62F
CROOKSTON      MOSUNNY   75  46  35 W24       29.68S
FOSSTON        MOSUNNY   72  46  40 W22G29    29.69F
DETROIT LAKES  SUNNY     73  43  33 W13       29.74S
MOORHEAD       SUNNY     77  45  31 W16G22    29.71F
PARK RAPIDS    SUNNY     77  43  29 NW15G22   29.71F
MAHNOMEN       FAIR      73  51  46 W16G22    29.70F
$$
MNZ006-009>011-018-025>026-222000-
   North Central Minnesota

CITY           SKY/WX    TMP DP  RH WIND       PRES   REMARKS
BAUDETTE       SUNNY     73  42  32 W14       29.62F
FLAG ISLAND    MOSUNNY   70  39  32 SW20      29.58F
INTL FALLS     SUNNY     73  42  32 W15G22    29.62F
WASKISH        CLOUDY    72  52  49 W8        29.65F
BIG FORK       SUNNY     73  46  38 SW12      29.67F
LONGVILLE      MOSUNNY   73  45  35 N6        29.71F
GRAND RAPIDS   CLOUDY    72  47  40 NW10      29.71F
CRANE LAKE     MOSUNNY   72  45  37 NW7       29.65F
ORR            MOSUNNY   73  39  29 W9        29.64S
COOK           MOSUNNY   72  41  33 W9        29.67S
WALKER         FAIR      73  47  39 W8G20     29.70S
$$
MNZ012-019>021-037-222000-
   Northeast Minnesota

CITY           SKY/WX    TMP DP  RH WIND       PRES   REMARKS
DULUTH         CLOUDY    73  50  44 W12G17    29.69F
ELY            MOSUNNY   72  37  28 W5        29.66S
HIBBING        CLOUDY    73  48  41 NW9G21    29.69R
EVELETH        MOSUNNY   73  34  23 W9G18     29.70S
DULUTH HARBOR  CLOUDY    75  54  46 SW13      29.68F
TWO HARBORS    CLOUDY    75  59  57 S12G17    29.66F
GRAND MARAIS     N/A     52  48  86 SW14      29.64S
G MARAIS ARPRT MOSUNNY   72  45  37 SW5       29.67S
$$
MNZ029>031-032-039>041-046>048-054>057-064-222000-
   West Central Minnesota

CITY           SKY/WX    TMP DP  RH WIND       PRES   REMARKS
FERGUS FALLS   SUNNY     73  52  46 NW12      29.72S
WHEATON        SUNNY     73  43  33 CALM      29.77F
MORRIS         MOSUNNY   72  61  68 W8        29.77S
ALEXANDRIA     PTSUNNY   71  58  63 SW9       29.77R
ELBOW LAKE     FAIR      72  48  42 NW7       29.76S
WADENA         SUNNY     72  48  43 W6        29.73S
GLENWOOD       CLOUDY    66  57  72 SW8       29.78R
APPLETON       CLOUDY    66  55  68 SW5       29.78R
BENSON         CLOUDY    66  57  72 W5        29.79F
ORTONVILLE     MOSUNNY   68  55  64 CALM      29.79R
MADISON        CLOUDY    66  63  88 W7        29.80R
WILLMAR        LGT RAIN  61  61 100 W5        29.80S
$$
MNZ033>034-036-042>043-049>051-058-059-222000-
   Central Minnesota

CITY           SKY/WX    TMP DP  RH WIND       PRES   REMARKS
ST CLOUD       CLOUDY    63  61  93 W8        29.75R
SAUK CENTRE    FAIR      67  58  74 SW9       29.78R
PAYNESVILLE    CLOUDY    60  60 100 W5        29.79R
AITKIN         CLOUDY    73  48  40 CALM      29.69F
PINE RIVER     MOSUNNY   73  52  46 W3        29.75S
BRAINERD       CLOUDY    75  41  29 W8        29.72F
STAPLES        SUNNY     73  43  33 W5        29.73S
LONG PRAIRIE   FAIR      70  55  60 S7        29.76R
LITTLE FALLS   MOSUNNY   68  55  64 W5        29.74S
LITCHFIELD     LGT RAIN  63  61  94 NE3       29.73F
BUFFALO        CLOUDY    64  60  87 S3        29.77R
MAPLE LAKE     CLOUDY    64  62  93 W5        29.77R
HUTCHINSON     CLOUDY    64  63  96 NW6       29.77S
$$
MNZ037-044-045-052-053-222000-
   East Central Minnesota

CITY           SKY/WX    TMP DP  RH WIND       PRES   REMARKS
PRINCETON      CLOUDY    64  61  88 W3        29.74R
MORA           CLOUDY    64  57  77 W3        29.73F
CAMBRIDGE      CLOUDY    66  59  77 CALM      29.70R
RUSH CITY      CLOUDY    66  61  82 CALM      29.69F
MOOSE LAKE     CLOUDY    72  50  46 SW5       29.68F
HINCKLEY       FAIR      70  59  68 SW3       29.70F
CLOQUET        CLOUDY    73  48  40 S6        29.69F
MCGREGOR       MOSUNNY   73  50  43 NW3       29.71F
$$
MNZ071>073-080-081-089-090-097-098-222000-
   Southwest Minnesota

CITY           SKY/WX    TMP DP  RH WIND       PRES   REMARKS
MONTEVIDEO     RAIN      63  63 100 NW3       29.79R
GRANITE FALLS  CLOUDY    66  62  87 NW5       29.80R
CANBY          CLOUDY    66  51  57 CALM      29.82R
MARSHALL       LGT RAIN  64  61  90 N12       29.79R
REDWOOD FALLS  CLOUDY    66  63  90 NW7       29.77R
OLIVIA         RAIN      63  59  88 NW8       29.77S
PIPESTONE      CLOUDY    70  61  73 NE9       29.78S
WINDOM         MOSUNNY   73  64  73 N8        29.75R
WORTHINGTON    CLOUDY    75  65  70 NE9       29.75R
JACKSON        CLOUDY    73  63  68 CALM      29.75R
TRACY          CLOUDY    67  63  89 N12G17    29.78R
SLAYTON        CLOUDY    69  60  74 N12       29.77S
$$
MNZ065>067-074>077-082>085-091>093-222000-
   South Central Minnesota

CITY           SKY/WX    TMP DP  RH WIND       PRES   REMARKS
MANKATO        CLOUDY    73  63  70 E7        29.73R
NEW ULM        CLOUDY    70  64  83 N7        29.74R
ST JAMES       CLOUDY    75  66  73 N6        29.74R
FAIRMONT       CLOUDY    75  66  73 E9        29.72R
GLENCOE        TSTM      66  65  97 NW9       29.76R
FARIBAULT      CLOUDY    72  63  73 E6        29.71R
OWATONNA       CLOUDY    70  63  78 E9        29.70R
WASECA         PTSUNNY   70  64  83 E10       29.71R
ALBERT LEA     CLOUDY    73  66  78 SE10      29.72F
$$
MNZ078>079-086>088-094>096-222000-
   Southeast Minnesota

CITY           SKY/WX    TMP DP  RH WIND       PRES   REMARKS
ROCHESTER      CLOUDY    69  68  96 SE8       29.74R
RED WING       CLOUDY    72  66  83 E3        29.68S
STANTON        CLOUDY    73  66  81 E3        29.70R
DODGE CENTER   CLOUDY    68  63  83 E12       29.72F
WINONA         CLOUDY    70  68  94 NW6       29.77R THUNDER
AUSTIN         CLOUDY    70  66  88 SE7       29.72F
PRESTON        CLOUDY    68  65  90 N6        29.78R
$$
ABBREVIATIONS USED IN REMARKS
   TC - TEMPERATURES IN CELSIUS
  WCI - WIND CHILL INDEX
   HX - HEAT INDEX
  VSB - VISIBILITY
$$



USA.gov is the U.S. government's official web portal to all federal, state and local government web resources and services.